"2009-01-23 00:00:00",564836,12.06,295.8,5.779,1.398,14.22,105.4169,13.14,14.2,33.08,0,110.4,13.3,13.94,257.8
"2009-01-23 00:00:30",564837,12.64,299.3,7.847,1.407,14.94,105.4128,13.13,14.27,33.21,0,110.4,13.3,13.93,261.3
"2009-01-23 00:01:00",564838,13.24,304.6,5.94,1.371,16.38,105.3984,13.09,14.24,33.31,0,110.4,13.3,13.89,266.6
"2009-01-23 00:01:30",564839,10.81,298.8,4.981,1.324,13.77,105.3955,13.08,14.22,33.18,0,110.4,13.3,13.88,260.8
"2009-01-23 00:02:00",564840,10.87,303.3,6.513,1.424,14.38,105.3955,13.08,14.06,32.81,0,110.4,13.3,13.88,265.3
"2009-01-23 00:02:30",564841,9.91,301.4,2.451,0.317,12.43,105.3976,13.09,14.02,32.82,0,110.4,13.34,13.89,263.4
"2009-01-23 00:03:00",564842,11.13,302.6,8.08,1.315,14.03,105.4014,13.1,14,33.23,0,110.4,13.31,13.90,264.6
"2009-01-23 00:03:30",564843,11.87,301.9,6.921,1.352,16,105.4053,13.11,14.25,33.92,0,110.4,13.31,13.91,263.9
"2009-01-23 00:04:00",564844,11.71,303.2,6.722,1.378,15.86,105.4019,13.1,14.19,33.95,0,110.4,13.31,13.90,265.2
"2009-01-23 00:04:30",564845,11.11,297.5,6.336,1.362,14.23,105.4024,13.1,14.02,33.91,0,110.4,13.31,13.90,259.5
"2009-01-23 00:05:00",564846,11.4,301,6.838,1.325,14.94,105.401,13.1,14.21,34.14,0,110.4,13.31,13.90,263.0
"2009-01-23 00:05:30",564847,11.19,298,8.07,1.475,14.63,105.3932,13.08,14.01,34.08,0,110.4,13.31,13.88,260.0
"2009-01-23 00:06:00",564848,9.67,294.2,1.651,0.264,12.34,105.3844,13.06,14.04,34.17,0,110.4,13.34,13.85,256.2
"2009-01-23 00:06:30",564849,9.35,292.4,0.693,0.219,12.33,105.3792,13.04,13.96,34.02,0,110.4,13.34,13.84,254.4
"2009-01-23 00:07:00",564850,9.77,295.7,3.652,0.526,13.01,105.3786,13.04,14.02,34.09,0,110.4,13.31,13.84,257.7
"2009-01-23 00:07:30",564851,10.97,305.7,6.319,1.298,16.51,105.3789,13.04,14.19,34.35,0,110.4,13.31,13.84,267.7
"2009-01-23 00:08:00",564852,11.06,304.7,6.73,1.136,15.89,105.3789,13.04,14.08,34.32,0,110.4,13.31,13.84,266.7
"2009-01-23 00:08:30",564853,9.28,294.1,1.426,0.231,12.59,105.3789,13.04,14.02,34.31,0,110.4,13.34,13.84,256.1
"2009-01-23 00:09:00",564854,10.71,306.9,7.237,1.255,16.42,105.3789,13.04,14.19,34.59,0,110.4,13.31,13.84,268.9
"2009-01-23 00:09:30",564855,10.48,307.3,6.498,1.516,15.31,105.3789,13.04,14.11,34.56,0,110.4,13.3,13.84,269.3
"2009-01-23 00:10:00",564856,8.87,296.5,2.37,0.356,12.2,105.3747,13.03,13.92,34.52,0,110.4,13.3,13.83,258.5
"2009-01-23 00:10:30",564857,9.65,294.1,1.725,0.468,12.15,105.3583,12.99,13.89,34.77,0,110.4,13.33,13.79,256.1
"2009-01-23 00:11:00",564858,10.22,295,5.17,1.011,13.68,105.3451,12.96,14.04,35,0,110.4,13.31,13.75,257.0
"2009-01-23 00:11:30",564859,11.91,300.1,7.18,1.241,15.8,105.3451,12.96,14.14,35.26,0,110.3,13.31,13.75,262.1
"2009-01-23 00:12:00",564860,11.85,301,6.819,1.13,16.65,105.3439,12.95,14.09,35.34,0,110.3,13.31,13.75,263.0
"2009-01-23 00:12:30",564861,10.62,297.7,7.841,1.162,14.1,105.3245,12.9,13.91,35.29,0,110.3,13.31,13.70,259.7
"2009-01-23 00:13:00",564862,11.5,303.7,6.105,1.14,15.95,105.3112,12.87,14.09,35.52,0,110.3,13.3,13.67,265.7
"2009-01-23 00:13:30",564863,10.45,297.1,5.5,1.19,12.77,105.3112,12.87,13.87,35.36,0,110.3,13.3,13.67,259.1
"2009-01-23 00:14:00",564864,9.24,294.5,3.215,0.239,12.12,105.3112,12.87,13.81,34.88,0,110.3,13.34,13.67,256.5
"2009-01-23 00:14:30",564865,9.1,299.5,1.299,0.209,12.2,105.3112,12.87,13.79,35.04,0,110.3,13.35,13.67,261.5
"2009-01-23 00:15:00",564866,10.4,300.6,6.631,1.391,14.68,105.3107,12.87,13.89,35.4,0,110.3,13.31,13.66,262.6
"2009-01-23 00:15:30",564867,11.02,299,7.705,1.542,15.56,105.3031,12.85,13.97,35.69,0,110.3,13.31,13.65,261.0
"2009-01-23 00:16:00",564868,11.56,302.6,6.217,1.429,15.72,105.2847,12.8,13.99,35.77,0,110.3,13.31,13.60,264.6
"2009-01-23 00:16:30",564869,11.9,302.8,7.2,1.202,15.6,105.2774,12.78,13.99,35.97,0,110.3,13.31,13.58,264.8
"2009-01-23 00:17:00",564870,11.51,302,6.686,1.393,14.02,105.2774,12.78,13.91,36.05,0,110.3,13.31,13.58,264.0
"2009-01-23 00:17:30",564871,10.84,298.1,5.458,1.055,13.07,105.2774,12.78,13.91,36.07,0,110.3,13.31,13.58,260.1
"2009-01-23 00:18:00",564872,10.39,295.6,1.317,0.168,11.88,105.2619,12.74,13.71,35.96,0,110.3,13.35,13.54,257.6
"2009-01-23 00:18:30",564873,11.32,297.8,6.442,1.185,14.15,105.2441,12.7,13.82,36.22,0,110.3,13.32,13.49,259.8
"2009-01-23 00:19:00",564874,10.79,297.2,6.216,1.212,13.67,105.2436,12.7,13.8,36.29,0,110.3,13.32,13.49,259.2
"2009-01-23 00:19:30",564875,11.85,301,6.48,1.294,15.13,105.2436,12.7,13.9,36.53,0,110.3,13.32,13.49,263.0
"2009-01-23 00:20:00",564876,12.64,303.9,6.306,1.218,16.09,105.2323,12.67,13.89,36.65,0,110.3,13.31,13.46,265.9
"2009-01-23 00:20:30",564877,12.52,305,6.771,1.31,15.6,105.2103,12.61,13.88,36.8,0,110.3,13.31,13.41,267.0
"2009-01-23 00:21:00",564878,11.39,301,6.244,1.523,13.54,105.2097,12.61,13.6,36.64,0,110.3,13.31,13.41,263.0
"2009-01-23 00:21:30",564879,9.75,295.8,0.948,0.114,11.71,105.1985,12.58,13.57,36.71,0,110.3,13.35,13.38,257.8
"2009-01-23 00:22:00",564880,9.67,295.9,0.698,0.229,11.97,105.1779,12.53,13.65,36.89,0,110.3,13.35,13.32,257.9
"2009-01-23 00:22:30",564881,10.38,301.9,7.293,1.237,14.3,105.1759,12.52,13.58,36.86,0,110.3,13.32,13.32,263.9
"2009-01-23 00:23:00",564882,10.33,303.7,7.605,1.203,15.2,105.1759,12.52,13.68,36.88,0,110.3,13.32,13.32,265.7
"2009-01-23 00:23:30",564883,10.86,301.8,6.841,1.402,14.78,105.1768,12.52,13.71,37.15,0,110.3,13.32,13.32,263.8
"2009-01-23 00:24:00",564884,11.85,305.7,5.384,1.064,16.27,105.1706,12.51,13.74,37.16,0,110.3,13.32,13.30,267.7
"2009-01-23 00:24:30",564885,11.54,299.8,6.715,1.382,14.35,105.1599,12.48,13.53,36.85,0,110.3,13.32,13.28,261.8
"2009-01-23 00:25:00",564886,10.5,294.2,0.689,0.181,11.96,105.1472,12.45,13.55,36.97,0,110.3,13.35,13.24,256.2
"2009-01-23 00:25:30",564887,10.66,294.3,1.012,0.202,11.89,105.1448,12.44,13.45,36.83,0,110.3,13.35,13.24,256.3
"2009-01-23 00:26:00",564888,11.51,300,6.793,1.211,14.54,105.1459,12.45,13.58,36.5,0,110.3,13.32,13.24,262.0
"2009-01-23 00:26:30",564889,11.72,297.9,7.447,1.492,14.5,105.1614,12.49,13.57,36.44,0,110.3,13.32,13.28,259.9
"2009-01-23 00:27:00",564890,12.1,300.7,7.106,1.293,15.01,105.1819,12.54,13.59,36.59,0,110.3,13.32,13.33,262.7
"2009-01-23 00:27:30",564891,13.11,307.9,5.652,1.12,16.36,105.183,12.54,13.67,36.85,0,110.3,13.32,13.34,269.9
"2009-01-23 00:28:00",564892,12.74,302.9,7.448,1.253,15.1,105.1837,12.54,13.63,36.94,0,110.3,13.32,13.34,264.9
"2009-01-23 00:28:30",564893,12.11,298.1,6.194,1.194,14.16,105.1725,12.51,13.62,37.14,0,110.3,13.32,13.31,260.1
"2009-01-23 00:29:00",564894,12.05,294.3,5.594,1.145,12.57,105.1556,12.47,13.43,36.84,0,110.3,13.32,13.27,256.3
"2009-01-23 00:29:30",564895,12.65,295.8,6.753,1.235,14.11,105.1542,12.47,13.56,36.84,0,110.3,13.32,13.26,257.8
"2009-01-23 00:30:00",564896,11.67,294,6.285,0.944,13.53,105.1536,12.47,13.56,36.96,0,110.3,13.32,13.26,256.0
"2009-01-23 00:30:30",564897,11.57,297.9,6.88,1.15,14.44,105.1572,12.47,13.57,36.91,0,110.3,13.32,13.27,259.9
"2009-01-23 00:31:00",564898,12.24,301.3,6.84,1.284,15.34,105.1611,12.48,13.64,37.02,0,110.3,13.32,13.28,263.3
"2009-01-23 00:31:30",564899,12.48,302.8,5.797,1.273,15.5,105.1628,12.49,13.62,36.98,0,110.3,13.32,13.28,264.8
"2009-01-23 00:32:00",564900,11.08,293.3,2.993,0.736,12.63,105.1605,12.48,13.52,36.83,0,110.3,13.32,13.28,255.3
"2009-01-23 00:32:30",564901,12.67,296.1,6.937,1.304,13.77,105.167,12.5,13.45,36.59,0,110.3,13.32,13.30,258.1
"2009-01-23 00:33:00",564902,11.59,293.7,6.275,1.081,13.65,105.1682,12.5,13.56,36.6,0,110.3,13.32,13.30,255.7
"2009-01-23 00:33:30",564903,12.46,291.2,4.931,0.775,12.92,105.1702,12.51,13.5,36.44,0,110.3,13.32,13.30,253.2
"2009-01-23 00:34:00",564904,12.07,291.2,5.237,0.929,13.27,105.1708,12.51,13.52,36.41,0,110.3,13.32,13.31,253.2
"2009-01-23 00:34:30",564905,12.88,298.2,6.253,1.15,16.23,105.1702,12.51,13.67,36.61,0,110.3,13.32,13.30,260.2
"2009-01-23 00:35:00",564906,12.39,301.1,6.371,1.267,15.96,105.1717,12.51,13.68,36.31,0,110.3,13.32,13.31,263.1
"2009-01-23 00:35:30",564907,12.48,299.4,6.273,1.373,15.3,105.1932,12.57,13.62,36.15,0,110.3,13.32,13.36,261.4
"2009-01-23 00:36:00",564908,11.28,290.9,4.366,0.98,12.03,105.2083,12.61,13.44,36.17,0,110.3,13.32,13.40,252.9
"2009-01-23 00:36:30",564909,12.02,298.5,6.947,1.304,13.85,105.1973,12.58,13.6,36.66,0,110.3,13.32,13.37,260.5
"2009-01-23 00:37:00",564910,12.03,297.5,4.847,1.228,14.32,105.1776,12.53,13.57,36.68,0,110.3,13.32,13.32,259.5
"2009-01-23 00:37:30",564911,11.42,296.9,7.659,1.167,13.78,105.1747,12.52,13.49,36.65,0,110.3,13.32,13.32,258.9
"2009-01-23 00:38:00",564912,11.99,298.9,6.906,1.248,14.96,105.1765,12.52,13.64,36.85,0,110.3,13.32,13.32,260.9
"2009-01-23 00:38:30",564913,12.46,298.5,6.944,1.255,15.19,105.1762,12.52,13.64,36.86,0,110.3,13.32,13.32,260.5
"2009-01-23 00:39:00",564914,12.22,297.9,6.951,1.451,15.54,105.1686,12.5,13.68,36.88,0,110.3,13.32,13.30,259.9
"2009-01-23 00:39:30",564915,11.31,294.1,6.567,1.315,13.68,105.1621,12.49,13.45,36.59,0,110.3,13.32,13.28,256.1
"2009-01-23 00:40:00",564916,11.43,293.4,6.148,1.24,13.85,105.1526,12.46,13.52,36.77,0,110.3,13.33,13.26,255.4
"2009-01-23 00:40:30",564917,10.68,289.9,5.037,0.832,12.97,105.1438,12.44,13.54,36.8,0,110.3,13.33,13.24,251.9
"2009-01-23 00:41:00",564918,11.58,294.2,6.944,1.413,15.21,105.1438,12.44,13.54,36.8,0,110.3,13.33,13.24,256.2
"2009-01-23 00:41:30",564919,10.91,290.8,5.094,0.988,13.07,105.1438,12.44,13.42,36.78,0,110.3,13.33,13.24,252.8
"2009-01-23 00:42:00",564920,12.12,296.6,6.718,1.256,15.25,105.1438,12.44,13.63,36.86,0,110.3,13.33,13.24,258.6
"2009-01-23 00:42:30",564921,11.85,297.1,6.677,1.22,15.55,105.1438,12.44,13.55,36.8,0,110.3,13.32,13.24,259.1
"2009-01-23 00:43:00",564922,10.39,289,4.824,0.956,12.81,105.1433,12.44,13.46,36.8,0,110.3,13.32,13.23,251.0
"2009-01-23 00:43:30",564923,10.37,287.6,4.142,0.93,12.19,105.1385,12.43,13.34,36.68,0,110.3,13.32,13.22,249.6
"2009-01-23 00:44:00",564924,11.22,289.9,5.691,1.421,14.16,105.1351,12.42,13.47,36.76,0,110.3,13.32,13.21,251.9
"2009-01-23 00:44:30",564925,11.19,286.9,7.964,1.22,13.68,105.1289,12.4,13.41,36.76,0,110.3,13.32,13.20,248.9
"2009-01-23 00:45:00",564926,11.93,296.3,6.385,1.305,14.45,105.1148,12.37,13.44,36.74,0,110.3,13.32,13.16,258.3
"2009-01-23 00:45:30",564927,11.39,292,6.849,1.298,14.45,105.1103,12.35,13.41,36.71,0,110.3,13.32,13.15,254.0
"2009-01-23 00:46:00",564928,11.75,292.7,6.576,1.494,14.98,105.11,12.35,13.57,36.95,0,110.3,13.32,13.15,254.7
"2009-01-23 00:46:30",564929,11.77,291.1,6.759,1.129,14.12,105.11,12.35,13.52,36.86,0,110.3,13.32,13.15,253.1
"2009-01-23 00:47:00",564930,11.32,289.8,5.5,0.975,13.16,105.11,12.35,13.36,36.7,0,110.3,13.33,13.15,251.8
"2009-01-23 00:47:30",564931,10.62,290.9,5.659,1.097,12.9,105.11,12.35,13.38,36.85,0,110.3,13.33,13.15,252.9
"2009-01-23 00:48:00",564932,12.06,295.7,6.874,1.34,14.85,105.11,12.35,13.44,36.91,0,110.3,13.33,13.15,257.7
"2009-01-23 00:48:30",564933,11.34,294,6.747,1.32,13.91,105.1097,12.35,13.46,37.02,0,110.3,13.33,13.15,256.0
"2009-01-23 00:49:00",564934,12.58,295.1,7.254,1.304,14.45,105.1035,12.34,13.35,36.83,0,110.3,13.33,13.13,257.1
"2009-01-23 00:49:30",564935,11.84,296.1,7.36,1.271,14.94,105.0967,12.32,13.42,36.91,0,110.3,13.33,13.11,258.1
"2009-01-23 00:50:00",564936,11.72,293.8,6.746,1.441,13.32,105.0939,12.31,13.36,36.9,0,110.3,13.33,13.11,255.8
"2009-01-23 00:50:30",564937,10.28,289.7,1.291,0.23,11.81,105.0897,12.3,13.45,37.06,0,110.3,13.36,13.10,251.7
"2009-01-23 00:51:00",564938,10.61,293.9,5.229,1.494,13.59,105.0818,12.28,13.3,36.93,0,110.3,13.33,13.08,255.9
"2009-01-23 00:51:30",564939,12.23,298.1,6.716,1.376,14.75,105.0773,12.27,13.43,37.11,0,110.3,13.33,13.07,260.1
"2009-01-23 00:52:00",564940,11.11,293.1,4.913,1.025,13.14,105.0764,12.27,13.35,37.05,0,110.3,13.33,13.06,255.1
"2009-01-23 00:52:30",564941,12.2,302.9,5.777,1.003,15.48,105.0761,12.27,13.35,37.02,0,110.3,13.33,13.06,264.9
"2009-01-23 00:53:00",564942,11.27,297.4,6.638,1.287,14.05,105.0761,12.27,13.41,37.1,0,110.3,13.33,13.06,259.4
"2009-01-23 00:53:30",564943,11.1,296.6,5.724,1.281,13.26,105.0761,12.27,13.34,37.08,0,110.3,13.33,13.06,258.6
"2009-01-23 00:54:00",564944,11.83,302.4,5.687,1.221,14.9,105.0761,12.27,13.32,37.09,0,110.3,13.33,13.06,264.4
"2009-01-23 00:54:30",564945,10.71,297.1,4.409,0.91,12.66,105.0753,12.27,13.3,37.15,0,110.3,13.33,13.06,259.1
"2009-01-23 00:55:00",564946,12.1,301.4,6.721,1.315,14.27,105.0705,12.25,13.29,37.07,0,110.3,13.33,13.05,263.4
"2009-01-23 00:55:30",564947,13.07,301.6,7.348,1.334,14.92,105.0663,12.24,13.38,37.08,0,110.3,13.33,13.04,263.6
"2009-01-23 00:56:00",564948,13.95,305.1,6.421,1.153,15.22,105.066,12.24,13.29,36.87,0,110.3,13.33,13.04,267.1
"2009-01-23 00:56:30",564949,12.05,297.4,3.793,0.799,12.69,105.0637,12.24,13.31,36.98,0,110.3,13.33,13.03,259.4
"2009-01-23 00:57:00",564950,14.09,302,6.282,1.152,15.45,105.0654,12.24,13.29,36.73,0,110.3,13.33,13.03,264.0
"2009-01-23 00:57:30",564951,12.68,297.7,5.753,1.054,13.56,105.0677,12.25,13.31,36.77,0,110.3,13.33,13.04,259.7
"2009-01-23 00:58:00",564952,12.7,301.8,7.031,1.158,14.91,105.0697,12.25,13.32,36.8,0,110.3,13.33,13.05,263.8
"2009-01-23 00:58:30",564953,12.17,302.2,7.516,1.43,14.21,105.0705,12.25,13.35,36.93,0,110.3,13.33,13.05,264.2
"2009-01-23 00:59:00",564954,11.79,302.4,6.167,1.358,13.52,105.0711,12.25,13.22,36.89,0,110.3,13.33,13.05,264.4
"2009-01-23 00:59:30",564955,10.48,299,3.869,0.873,12.14,105.07,12.25,13.29,36.98,0,110.3,13.33,13.05,261.0
"2009-01-23 01:00:00",564956,9.84,300.4,6.722,1.537,14.27,105.0683,12.25,13.3,36.86,0,110.3,13.33,13.04,262.4
"2009-01-23 01:00:30",564957,8.73,294.6,5.648,1.299,12.56,105.0506,12.2,13.35,37.21,0,110.3,13.33,13.00,256.6
"2009-01-23 01:01:00",564958,12.27,297.1,10.14,1.148,13.83,105.0438,12.18,13.16,36.93,0,110.3,13.33,12.98,259.1
"2009-01-23 01:01:30",564959,13.02,297.2,6.702,1.365,14.71,105.0444,12.19,13.3,36.93,0,110.3,13.33,12.98,259.2
"2009-01-23 01:02:00",564960,12.66,295,5.935,1.284,14.41,105.0456,12.19,13.34,36.91,0,110.3,13.33,12.98,257.0
"2009-01-23 01:02:30",564961,12.75,299.2,7.378,1.401,14.94,105.0482,12.2,13.38,36.93,0,110.3,13.33,12.99,261.2
"2009-01-23 01:03:00",564962,12.55,296.4,6.004,1.094,13.78,105.0491,12.2,13.19,36.75,0,110.3,13.33,12.99,258.4
"2009-01-23 01:03:30",564963,12.89,299.3,6.632,1.24,14.22,105.0482,12.2,13.31,36.86,0,110.3,13.33,12.99,261.3
"2009-01-23 01:04:00",564964,12.09,294.9,5.788,1.111,12.67,105.05,12.2,13.13,36.74,0,110.3,13.33,13.00,256.9
"2009-01-23 01:04:30",564965,11.45,297.6,5.908,1.186,12.85,105.0497,12.2,13.26,36.92,0,110.3,13.34,12.99,259.6
"2009-01-23 01:05:00",564966,12.97,305.5,6.15,1.053,15.9,105.0512,12.2,13.35,36.94,0,110.3,13.34,13.00,267.5
"2009-01-23 01:05:30",564967,11.81,301.7,6.705,1.291,14.98,105.0509,12.2,13.36,36.95,0,110.2,13.34,13.00,263.7
"2009-01-23 01:06:00",564968,9.98,295.2,5.429,1.18,12.53,105.0524,12.21,13.22,36.91,0,110.3,13.34,13.00,257.2
"2009-01-23 01:06:30",564969,10.61,299.7,6.465,1.196,14.04,105.0518,12.2,13.23,36.9,0,110.3,13.34,13.00,261.7
"2009-01-23 01:07:00",564970,10.89,300.2,6.834,1.507,13.83,105.0472,12.19,13.28,37.05,0,110.3,13.34,12.99,262.2
"2009-01-23 01:07:30",564971,10.35,293.9,1.61,0.222,11.66,105.0427,12.18,13.09,36.87,0,110.3,13.37,12.98,255.9
"2009-01-23 01:08:00",564972,10.96,297,6.411,1.269,13.61,105.0301,12.15,13.3,37.06,0,110.3,13.34,12.94,259.0
"2009-01-23 01:08:30",564973,12.2,304,5.275,1.167,15.94,105.0218,12.13,13.34,37.15,0,110.3,13.34,12.92,266.0
"2009-01-23 01:09:00",564974,12.85,302.9,6.114,0.962,16.42,105.0197,12.12,13.36,37.12,0,110.3,13.34,12.92,264.9
"2009-01-23 01:09:30",564975,12.21,300.1,8.1,1.153,14.72,105.0206,12.13,13.33,37.12,0,110.3,13.34,12.92,262.1
"2009-01-23 01:10:00",564976,12.21,301.6,7.177,1.084,13.88,105.0236,12.13,13.12,36.98,0,110.2,13.34,12.93,263.6
"2009-01-23 01:10:30",564977,11.52,302.7,7.662,1.127,13.67,105.025,12.14,13.22,37.16,0,110.2,13.34,12.93,264.7
"2009-01-23 01:11:00",564978,10.09,296.8,0.944,0.091,11.58,105.0238,12.13,13.06,37.06,0,110.3,13.37,12.93,258.8
"2009-01-23 01:11:30",564979,11,301.6,7.042,1.226,14.15,105.0264,12.14,13.19,37.26,0,110.3,13.34,12.93,263.6
"2009-01-23 01:12:00",564980,11.64,304.5,6.587,1.213,15.63,105.0176,12.12,13.3,37.44,0,110.3,13.34,12.91,266.5
"2009-01-23 01:12:30",564981,12.31,303.5,6.308,1.235,15.62,104.9988,12.07,13.33,37.51,0,110.3,13.34,12.86,265.5
"2009-01-23 01:13:00",564982,12.61,296.1,7.322,1.26,14.93,104.9982,12.07,13.23,37.03,0,110.3,13.34,12.86,258.1
"2009-01-23 01:13:30",564983,12.14,296,7.446,1.245,14.12,105.0158,12.11,13.18,36.94,0,110.2,13.34,12.91,258.0
"2009-01-23 01:14:00",564984,10.55,290.3,2.269,0.276,12.14,105.0261,12.14,13.14,36.98,0,110.2,13.37,12.93,252.3
"2009-01-23 01:14:30",564985,10.07,291.6,3.509,0.281,11.61,105.028,12.14,13.03,36.92,0,110.2,13.38,12.94,253.6
"2009-01-23 01:15:00",564986,10.86,297.3,5.934,1.077,13.69,105.0269,12.14,13.12,37.18,0,110.2,13.34,12.94,259.3
"2009-01-23 01:15:30",564987,11.7,300.6,6.38,1.385,15.57,105.0238,12.13,13.27,37.39,0,110.2,13.34,12.93,262.6
"2009-01-23 01:16:00",564988,12.09,305.8,5.769,1.075,16.45,105.0155,12.11,13.34,37.46,0,110.2,13.34,12.91,267.8
"2009-01-23 01:16:30",564989,11.93,296.6,6.413,1.426,15.94,105.0075,12.09,13.21,37.17,0,110.2,13.33,12.89,258.6
"2009-01-23 01:17:00",564990,10.47,291.7,2.974,0.573,11.82,105.0088,12.09,13.1,37.14,0,110.2,13.33,12.89,253.7
"2009-01-23 01:17:30",564991,12.06,294.7,5.378,1.231,13.86,105.0072,12.09,13.07,37.08,0,110.2,13.33,12.89,256.7
"2009-01-23 01:18:00",564992,11.89,289.5,0.317,0.179,11.8,105.0098,12.1,13.01,36.81,0,110.2,13.36,12.89,251.5
"2009-01-23 01:18:30",564993,13.11,293.8,6.243,1.213,13.62,105.0287,12.15,13.01,36.72,0,110.2,13.33,12.94,255.8
"2009-01-23 01:19:00",564994,14.18,300.4,6.656,1.152,15.6,105.0374,12.17,13.26,36.93,0,110.2,13.33,12.96,262.4
"2009-01-23 01:19:30",564995,14.53,304,5.122,0.998,16.8,105.0405,12.18,13.32,36.99,0,110.2,13.33,12.97,266.0
"2009-01-23 01:20:00",564996,14.43,304.1,5.848,1.137,16.03,105.0422,12.18,13.34,37.01,0,110.2,13.33,12.98,266.1
"2009-01-23 01:20:30",564997,13.91,301.8,6.896,1.31,14.94,105.0425,12.18,13.24,36.85,0,110.2,13.34,12.98,263.8
"2009-01-23 01:21:00",564998,12.68,293.3,1.302,0.575,11.78,105.0437,12.18,13.14,36.71,0,110.2,13.34,12.98,255.3
"2009-01-23 01:21:30",564999,13.55,294,1.135,0.279,11.82,105.0434,12.18,13.07,36.66,0,110.2,13.37,12.98,256.0
"2009-01-23 01:22:00",565000,13.61,295.2,4.568,0.691,12.95,105.0457,12.19,13.14,36.71,0,110.2,13.34,12.98,257.2
"2009-01-23 01:22:30",565001,14.93,304.9,4.969,1.102,16.58,105.0564,12.22,13.33,36.9,0,110.3,13.34,13.01,266.9
"2009-01-23 01:23:00",565002,15.2,305.2,4.284,0.738,17.31,105.068,12.25,13.43,36.96,0,110.2,13.34,13.04,267.2
"2009-01-23 01:23:30",565003,14.61,300.6,5.878,1.194,15.85,105.0699,12.25,13.36,36.89,0,110.2,13.34,13.05,262.6
"2009-01-23 01:24:00",565004,13.46,297.7,5.765,1.292,14.23,105.0762,12.27,13.26,36.75,0,110.2,13.34,13.06,259.7
"2009-01-23 01:24:30",565005,12.55,291.7,1.05,0.205,11.8,105.0776,12.27,13.22,36.68,0,110.2,13.38,13.07,253.7
"2009-01-23 01:25:00",565006,12.35,291.3,1.011,0.319,11.79,105.0779,12.27,13.12,36.55,0,110.2,13.38,13.07,253.3
"2009-01-23 01:25:30",565007,12.84,291.3,0.726,0.212,12.37,105.0779,12.27,13.16,36.57,0,110.2,13.38,13.07,253.3
"2009-01-23 01:26:00",565008,15.16,305.3,3.002,0.799,17.2,105.0779,12.27,13.45,36.83,0,110.3,13.34,13.07,267.3
"2009-01-23 01:26:30",565009,14.08,304.9,3.863,0.748,17.33,105.0776,12.27,13.47,36.84,0,110.2,13.34,13.07,266.9
"2009-01-23 01:27:00",565010,13.62,302.3,6.612,1.072,15.52,105.081,12.28,13.45,36.32,0,110.2,13.34,13.07,264.3
"2009-01-23 01:27:30",565011,13.06,301.7,8.06,1.53,13.99,105.0979,12.32,13.26,36.57,0,110.2,13.34,13.12,263.7
"2009-01-23 01:28:00",565012,10.98,299.1,4.981,1.091,12.19,105.0911,12.31,13.33,36.89,0,110.2,13.34,13.10,261.1
"2009-01-23 01:28:30",565013,11.58,296,0.953,0.205,11.65,105.0798,12.28,13.19,36.53,0,110.2,13.38,13.07,258.0
"2009-01-23 01:29:00",565014,12.58,298.9,5.286,0.95,13.22,105.0781,12.27,13.22,36.58,0,110.2,13.34,13.07,260.9
"2009-01-23 01:29:30",565015,14.08,307.2,5.412,0.873,16.83,105.0779,12.27,13.45,36.86,0,110.2,13.34,13.07,269.2
"2009-01-23 01:30:00",565016,13.45,308.5,5.855,1.116,16.69,105.0776,12.27,13.46,36.93,0,110.2,13.34,13.07,270.5
"2009-01-23 01:30:30",565017,13.31,314.5,4.508,0.88,16.36,105.0779,12.27,13.52,37.14,0,110.2,13.34,13.07,276.5
"2009-01-23 01:31:00",565018,11.69,313.2,10.43,1.217,13.93,105.0776,12.27,13.24,37.28,0,110.2,13.34,13.07,275.2
"2009-01-23 01:31:30",565019,10.17,302.7,3.576,0.41,11.24,105.0607,12.23,13.2,37.31,0,110.2,13.37,13.02,264.7
"2009-01-23 01:32:00",565020,10.53,304.9,3.109,0.285,11.19,105.044,12.19,13.11,37.32,0,110.2,13.37,12.98,266.9
"2009-01-23 01:32:30",565021,11.55,308.8,5.573,1.553,13.14,105.044,12.19,13.09,37.45,0,110.2,13.34,12.98,270.8
"2009-01-23 01:33:00",565022,11.67,309.5,6.488,1.257,14.32,105.0381,12.17,13.27,37.93,0,110.2,13.34,12.96,271.5
"2009-01-23 01:33:30",565023,12.61,311.6,4.311,0.989,16.96,105.0164,12.11,13.32,37.8,0,110.2,13.34,12.91,273.6
"2009-01-23 01:34:00",565024,12.67,306,5.476,1.077,16.26,105.0104,12.1,13.34,37.53,0,110.2,13.34,12.89,268.0
"2009-01-23 01:34:30",565025,12.03,302.9,6.782,1.324,14.29,105.0113,12.1,13.11,37.2,0,110.2,13.33,12.90,264.9
"2009-01-23 01:35:00",565026,10.61,295.7,0.61,0.159,11.71,105.0121,12.1,13.14,37.25,0,110.2,13.37,12.90,257.7
"2009-01-23 01:35:30",565027,10.69,296.3,0.566,0.21,11.58,105.0265,12.14,13.05,37.11,0,110.2,13.37,12.93,258.3
"2009-01-23 01:36:00",565028,10.65,300.1,5.359,0.825,12.48,105.0375,12.17,13.17,37.46,0,110.2,13.34,12.96,262.1
"2009-01-23 01:36:30",565029,12.09,311.2,7.172,1.184,14.89,105.0293,12.15,13.13,37.79,0,110.2,13.34,12.94,273.2
"2009-01-23 01:37:00",565030,12.6,314.4,6.582,0.977,15.96,105.0101,12.1,13.26,38.29,0,110.2,13.34,12.89,276.4
"2009-01-23 01:37:30",565031,13.36,316.5,4.024,1.033,16.2,105.0093,12.1,13.29,38.23,0,110.2,13.34,12.89,278.5
"2009-01-23 01:38:00",565032,12.7,311.8,7.284,1.338,14.77,105.0006,12.07,13.15,38.16,0,110.2,13.34,12.87,273.8
"2009-01-23 01:38:30",565033,10.91,298.7,2.44,0.696,11.38,104.9955,12.06,12.96,37.89,0,110.2,13.34,12.86,260.7
"2009-01-23 01:39:00",565034,11.01,298,1.268,0.328,11.39,104.9836,12.03,13,38.08,0,110.2,13.38,12.82,260.0
"2009-01-23 01:39:30",565035,12.24,304.7,6.336,1.428,13.79,104.9797,12.02,13.04,37.95,0,110.2,13.34,12.81,266.7
"2009-01-23 01:40:00",565036,11.82,301.3,6.048,1.216,14.15,104.9814,12.02,13.16,38.01,0,110.2,13.34,12.82,263.3
"2009-01-23 01:40:30",565037,12.33,302.5,7.279,1.383,14.88,104.9836,12.03,13.21,37.87,0,110.2,13.35,12.82,264.5
"2009-01-23 01:41:00",565038,13.5,308,4.857,0.928,16.81,104.9873,12.04,13.22,37.8,0,110.2,13.35,12.83,270.0
"2009-01-23 01:41:30",565039,11.84,298.6,6.231,1.167,13.39,105.0073,12.09,13.09,37.49,0,110.2,13.34,12.89,260.6
"2009-01-23 01:42:00",565040,10.99,295.1,0.573,0.164,11.57,105.0101,12.1,13,37.29,0,110.2,13.38,12.89,257.1
"2009-01-23 01:42:30",565041,12.38,300,6.476,1.432,13.6,105.0101,12.1,13.11,37.46,0,110.2,13.34,12.89,262.0
"2009-01-23 01:43:00",565042,12.21,297,6.092,0.983,13.04,105.0101,12.1,13.12,37.3,0,110.2,13.34,12.89,259.0
"2009-01-23 01:43:30",565043,13.17,305.7,7.161,1.048,15.27,105.011,12.1,13.07,37.38,0,110.2,13.35,12.89,267.7
"2009-01-23 01:44:00",565044,12.66,303.4,5.868,1.317,14.67,105.0116,12.1,13.2,37.48,0,110.2,13.35,12.90,265.4
"2009-01-23 01:44:30",565045,13.46,306.8,5.928,1.105,16.09,105.0164,12.11,13.25,37.59,0,110.2,13.35,12.91,268.8
"2009-01-23 01:45:00",565046,12.65,304.7,7.139,1.159,14.84,105.0149,12.11,13.24,37.55,0,110.2,13.35,12.90,266.7
"2009-01-23 01:45:30",565047,12.21,299.6,5.749,1.21,12.97,105.0268,12.14,13.06,37.07,0,110.2,13.34,12.94,261.6
"2009-01-23 01:46:00",565048,11.9,301.8,8.58,1.258,12.72,105.0248,12.14,13.04,37.4,0,110.2,13.34,12.93,263.8
"2009-01-23 01:46:30",565049,12.16,303,6.337,1.269,13.91,105.0135,12.11,13.08,37.36,0,110.2,13.34,12.90,265.0
"2009-01-23 01:47:00",565050,11.25,302.4,5.19,1.03,13.07,105.0101,12.1,13.13,37.68,0,110.2,13.35,12.89,264.4
"2009-01-23 01:47:30",565051,11.75,310.1,5.19,1.405,15.19,105.0101,12.1,13.11,38.02,0,110.2,13.35,12.89,272.1